Flag for Germany Weather past 2 weeks in Lage, North Rhine-Westphalia, Germany

Now
86 °F

Sunny.


Feels Like: 84 °F
Forecast: 66 / 92 °F
Wind: 6 mph from Southeast

Location: Bad Lippspringe

Current Time: Jul 1, 2015 at 5:48:24 PM

Latest Report: Jul 1, 2015 at 5:00 PM


Visibility: 10 mi

Pressure: 30.08 "Hg

Humidity: 33%

Dew point: 54 °F

Location of LageLocation

Historic Weather in Lage — Graph

°F

Lage temperature yesterday

Maximum temperature yesterday: 78 °F (at 6:00 PM)
Minimum temperature yesterday: 54 °F (at 5:00 AM)
Average temperature yesterday: 68 °F

Past Weeks' High & Low Weather Summary

 TemperatureHumidityPressure
High86 °F (Jul 1, 5:00 PM)100% (Jun 18, 6:00 AM)30.32 "Hg (Jun 18, 6:00 AM)
Low37 °F (Jun 17, 4:00 AM)33% (Jul 1, 4:00 PM)29.67 "Hg (Jun 22, 11:00 PM)
Average60 °F73%30.07 "Hg
* Reported Jun 16 5:00 PM — Jul 1 5:00 PM, Lage, Weather by CustomWeather, © 2015

Note: Actual official high and low records may vary slightly from our data, if they occured in-between our weather recording intervals... More about our weather records

Advertising

Lage weather history for previous 24 hours

 ConditionsComfort  
Time TempWeatherWind HumidityBarometerVisibility
5:00 PM
Wed, Jul 1
86 °FSunny.6 mph33%30.08 "Hg10 mi
4:00 PM85 °FSunny.7 mph33%30.09 "Hg13 mi
3:00 PM85 °FScattered clouds.6 mph36%30.10 "Hg5 mi
2:00 PM83 °FSunny.6 mph37%30.11 "Hg7 mi
1:00 PM83 °FSunny.6 mph38%30.12 "Hg7 mi
12:00 PM80 °FPassing clouds.3 mph41%30.13 "Hg11 mi
11:00 AM78 °FSunny.3 mph45%30.14 "Hg9 mi
10:00 AM75 °FSunny.6 mph44%30.14 "Hg6 mi
9:00 AM72 °FSunny.3 mph47%30.15 "Hg8 mi
8:00 AM70 °FSunny.3 mph49%30.15 "Hg16 mi
7:00 AM68 °FSunny.6 mph50%30.14 "Hg11 mi
6:00 AM66 °FSunny.5 mph54%30.14 "Hg19 mi
5:00 AM66 °FClear.5 mph53%30.14 "Hg28 mi
4:00 AM67 °FClear.6 mph51%30.14 "Hg28 mi
3:00 AM66 °FClear.5 mph54%30.14 "Hg25 mi
2:00 AM66 °FClear.6 mph54%30.15 "Hg31 mi
1:00 AM66 °FClear.6 mph55%30.15 "Hg31 mi
12:00 AM66 °FClear.5 mph60%30.16 "Hg28 mi
11:00 PM
Tue, Jun 30
67 °FClear.5 mph57%30.16 "Hg25 mi
10:00 PM68 °FClear.5 mph52%30.15 "Hg28 mi
9:00 PM72 °FSunny.3 mph52%30.14 "Hg22 mi
8:00 PM75 °FSunny.5 mph44%30.13 "Hg10 mi
7:00 PM77 °FSunny.5 mph38%30.13 "Hg14 mi
6:00 PM78 °FSunny.3 mph38%30.14 "Hg18 mi
Weather by CustomWeather, © 2015

See weather overviewHow to use our weather pages